EW1079 Weather Reports


Display with metric or nautical units.
time (UTC)temp
F
wind
direction
speed
MPH
gust
MPH
rain 1hr
in
rain 24hr
in
rain mn
in
humidity
%
barometer
mb
20191114182558 35 22 0.0 3.0 0.00 0.07 0.02 91 1008.4
20191114182054 35 335 1.0 3.0 0.00 0.07 0.02 91 1008.3
20191114181054 35 332 1.0 4.0 0.00 0.08 0.02 91 1008.3
20191114180558 35 276 1.0 4.0 0.00 0.08 0.02 91 1008.2
20191114180054 34 238 2.0 5.0 0.00 0.09 0.02 90 1008.4
20191114175054 35 69 0.0 2.0 0.00 0.09 0.02 89 1008.2
20191114173557 35 63 0.0 1.0 0.00 0.09 0.02 88 1008.1
20191114172558 35 67 0.0 3.0 0.00 0.09 0.02 88 1008.2
20191114171558 36 69 0.0 3.0 0.00 0.10 0.02 87 1008.2
20191114171054 36 61 1.0 3.0 0.00 0.10 0.02 86 1008.3
20191114170558 36 56 1.0 3.0 0.00 0.10 0.02 86 1008.3
20191114170054 37 62 1.0 3.0 0.00 0.11 0.02 85 1008.4
20191114165558 37 66 2.0 8.0 0.00 0.11 0.02 84 1008.4
20191114164557 38 61 4.0 7.0 0.00 0.12 0.02 84 1008.4
20191114164054 38 63 4.0 7.0 0.00 0.12 0.02 84 1008.3
20191114163054 39 59 2.0 7.0 0.00 0.12 0.02 83 1008.5
20191114162558 39 63 1.0 5.0 0.00 0.12 0.02 82 1008.6
20191114162054 40 57 1.0 5.0 0.00 0.13 0.02 81 1008.6
20191114161558 40 57 3.0 6.0 0.00 0.13 0.02 80 1008.6
20191114160557 41 59 3.0 6.0 0.00 0.13 0.02 78 1008.5
20191114155558 41 58 2.0 5.0 0.00 0.13 0.02 74 1008.4
20191114155054 42 58 3.0 7.0 0.00 0.14 0.02 73 1008.5
20191114154054 42 65 2.0 4.0 0.00 0.14 0.02 68 1008.4
20191114152558 42 62 0.0 2.0 0.00 0.15 0.02 69 1008.5
20191114152054 42 65 1.0 4.0 0.00 0.16 0.02 71 1008.6
20191114145557 43 93 2.0 5.0 0.00 0.17 0.02 70 1008.5
20191114143558 44 89 3.0 8.0 0.00 0.19 0.02 68 1008.5
20191114143057 44 87 4.0 8.0 0.00 0.20 0.02 68 1008.5
20191114141555 44 99 2.0 6.0 0.00 0.22 0.02 66 1008.6
20191114141057 45 98 3.0 6.0 0.00 0.22 0.02 65 1008.7
20191114140057 46 94 5.0 11.0 0.00 0.23 0.02 63 1008.5
20191114135554 46 89 6.0 11.0 0.00 0.24 0.02 62 1008.5
20191114134057 47 90 4.0 10.0 0.00 0.24 0.02 62 1008.4
20191114133554 47 88 4.0 8.0 0.00 0.24 0.02 64 1008.5
20191114133057 47 97 4.0 8.0 0.00 0.25 0.02 63 1008.5
20191114132554 47 100 4.0 8.0 0.00 0.25 0.02 63 1008.5
20191114130554 48 98 3.0 7.0 0.00 0.28 0.02 65 1008.8
20191114130057 48 94 3.0 8.0 0.00 0.28 0.02 64 1008.7
20191114125553 48 110 3.0 8.0 0.00 0.28 0.02 64 1008.7
20191114124553 48 91 3.0 8.0 0.00 0.28 0.02 62 1008.8
20191114123554 48 76 3.0 6.0 0.00 0.28 0.02 63 1008.9
20191114121553 48 91 3.0 7.0 0.00 0.30 0.02 63 1009.1
20191114115057 48 119 2.0 5.0 0.00 0.31 0.02 64 1009.0
20191114114553 48 96 2.0 5.0 0.00 0.32 0.02 66 1009.0
20191114114057 48 79 2.0 5.0 0.00 0.32 0.02 65 1008.9
20191114113553 48 80 2.0 5.0 0.00 0.32 0.02 66 1008.9
20191114113057 47 93 2.0 6.0 0.00 0.33 0.02 67 1008.9
20191114111553 47 99 2.0 4.0 0.00 0.35 0.02 70 1009.1
20191114110554 47 115 1.0 7.0 0.00 0.35 0.02 69 1009.0
20191114104553 47 149 3.0 7.0 0.00 0.37 0.02 69 1009.0
20191114104057 47 137 4.0 9.0 0.00 0.37 0.02 70 1009.0
20191114103058 47 132 4.0 8.0 0.00 0.39 0.02 74 1008.8
20191114102554 47 130 3.0 8.0 0.00 0.39 0.02 71 1008.9
20191114102057 47 152 2.0 4.0 0.00 0.39 0.02 72 1008.9
20191114100553 46 156 1.0 5.0 0.00 0.41 0.02 75 1008.7
20191114100057 46 140 2.0 5.0 0.00 0.42 0.02 74 1008.8
20191114095553 46 141 3.0 7.0 0.00 0.42 0.02 74 1008.7
20191114094057 45 72 0.0 2.0 0.00 0.43 0.02 79 1008.9
20191114093553 45 62 1.0 3.0 0.00 0.43 0.02 78 1008.9
20191114092057 44 83 1.0 3.0 0.00 0.43 0.02 79 1008.9
20191114091604 44 138 1.0 3.0 0.00 0.44 0.02 81 1008.9
20191114090554 44 214 1.0 3.0 0.00 0.45 0.02 81 1009.0
20191114084553 43 200 1.0 3.0 0.00 0.47 0.02 84 1008.8
20191114084057 42 199 1.0 3.0 0.01 0.48 0.02 85 1008.7
20191114083057 42 231 1.0 5.0 0.01 0.49 0.02 87 1008.7
20191114082554 41 253 0.0 3.0 0.01 0.50 0.02 88 1008.7
20191114082057 41 252 1.0 3.0 0.01 0.50 0.02 89 1008.7
20191114080553 40 249 2.0 6.0 0.01 0.50 0.02 90 1008.6
20191114080056 40 249 2.0 5.0 0.01 0.51 0.02 90 1008.6
20191114075553 39 241 2.0 6.0 0.01 0.52 0.02 89 1008.6
20191114075057 39 227 1.0 6.0 0.01 0.52 0.02 90 1008.5
20191114074553 39 89 0.0 2.0 0.01 0.53 0.02 90 1008.4
20191114071553 37 86 1.0 2.0 0.00 0.54 0.02 91 1008.1
20191114071057 37 87 1.0 3.0 0.00 0.54 0.02 91 1008.0
20191114070057 37 90 0.0 2.0 0.00 0.54 0.02 91 1007.7
20191114064056 36 206 0.0 2.0 0.00 0.54 0.02 92 1007.5
20191114063057 36 219 0.0 1.0 0.00 0.54 0.02 91 1007.5
20191114062553 36 233 0.0 3.0 0.00 0.54 0.02 91 1007.5
20191114061057 37 236 1.0 4.0 0.00 0.55 0.02 91 1007.3
20191114060553 37 205 1.0 4.0 0.00 0.55 0.02 91 1007.3
20191114060056 37 168 1.0 4.0 0.00 0.55 0.02 91 1007.3
20191114055554 37 177 2.0 7.0 0.00 0.55 0.02 91 1007.3
20191114055057 37 186 2.0 7.0 0.00 0.55 0.02 92 1007.2
20191114053553 37 175 1.0 4.0 0.00 0.55 0.02 92 1007.1
20191114053056 37 174 2.0 8.0 0.00 0.55 0.02 92 1007.1
20191114052553 37 176 3.0 8.0 0.00 0.55 0.02 92 1007.1
20191114050553 36 202 2.0 8.0 0.00 0.56 0.02 93 1006.6
20191114045553 36 246 1.0 4.0 0.00 0.56 0.02 92 1006.6
20191114045057 36 273 1.0 4.0 0.00 0.56 0.02 92 1006.5
20191114044057 37 283 1.0 5.0 0.00 0.56 0.02 92 1006.3
20191114043057 37 293 1.0 5.0 0.00 0.56 0.02 92 1006.3
20191114042057 37 256 0.0 3.0 0.00 0.56 0.02 91 1006.1
20191114040553 37 226 2.0 6.0 0.00 0.56 0.02 91 1005.9
20191114040056 38 223 3.0 7.0 0.00 0.57 0.02 91 1005.9
20191114035553 38 214 3.0 7.0 0.00 0.57 0.02 90 1005.8
20191114035057 38 197 3.0 7.0 0.00 0.57 0.02 91 1005.9
20191114034553 38 189 3.0 10.0 0.00 0.57 0.02 91 1005.8
20191114034057 38 196 3.0 10.0 0.00 0.57 0.02 91 1005.9
20191114033553 38 200 3.0 8.0 0.00 0.57 0.02 91 1005.9
20191114033057 38 205 3.0 9.0 0.00 0.57 0.02 92 1005.8
20191114032056 38 208 3.0 7.0 0.00 0.57 0.02 92 1005.9
20191114031057 38 178 2.0 6.0 0.00 0.57 0.02 92 1005.9
20191114030553 38 149 2.0 6.0 0.00 0.57 0.02 92 1005.8
20191114025553 38 116 0.0 6.0 0.00 0.57 0.02 92 1005.8
20191114024553 38 141 2.0 6.0 0.00 0.57 0.02 93 1005.8
20191114024057 38 144 1.0 6.0 0.00 0.57 0.02 93 1005.8
20191114023553 37 178 1.0 5.0 0.00 0.57 0.02 93 1005.8
20191114023057 37 205 2.0 7.0 0.00 0.57 0.02 93 1005.7
20191114022553 37 205 2.0 7.0 0.00 0.57 0.02 93 1005.6
20191114022056 37 193 1.0 7.0 0.00 0.57 0.02 93 1005.6
20191114020553 37 236 0.0 2.0 0.00 0.57 0.02 93 1005.6
20191114020056 38 236 1.0 2.0 0.00 0.58 0.02 93 1005.5
20191114015553 38 238 1.0 5.0 0.00 0.58 0.02 93 1005.5
20191114014552 38 244 1.0 3.0 0.01 0.58 0.02 93 1005.7
20191114013553 38 224 2.0 5.0 0.01 0.58 0.02 93 1005.8
20191114012553 38 231 2.0 6.0 0.01 0.58 0.02 93 1005.8
20191114011553 38 235 5.0 12.0 0.01 0.58 0.02 94 1005.8
20191114011057 38 232 6.0 13.0 0.01 0.58 0.02 94 1005.8
20191114010553 38 227 6.0 13.0 0.01 0.59 0.02 94 1005.8
20191114010057 38 227 4.0 10.0 0.01 0.59 0.02 95 1005.7
20191114005056 38 228 4.0 9.0 0.01 0.59 0.02 95 1005.3
20191114003552 38 219 3.0 7.0 0.00 0.58 0.01 95 1005.3
20191114003056 38 230 2.0 6.0 0.00 0.58 0.01 95 1005.1
20191114002056 37 211 1.0 4.0 0.00 0.58 0.01 95 1005.3
20191114001056 37 225 2.0 6.0 0.00 0.58 0.01 95 1005.2
20191114000553 38 228 2.0 6.0 0.01 0.58 0.01 95 1005.1
20191113235057 38 239 3.0 7.0 0.01 0.59 0.01 95 1005.1
20191113234553 38 239 4.0 9.0 0.01 0.59 0.01 95 1005.1
20191113233553 38 237 4.0 11.0 0.01 0.59 0.01 95 1005.1
20191113231553 38 225 5.0 12.0 0.01 0.59 0.01 96 1004.8
20191113231056 38 222 5.0 12.0 0.01 0.59 0.01 96 1004.8
20191113224552 37 234 0.0 5.0 0.00 0.59 0.58 96 1004.6
20191113222552 36 298 0.0 1.0 0.00 0.59 0.58 96 1004.4
20191113221552 37 297 0.0 3.0 0.00 0.59 0.58 96 1004.4
20191113221056 37 297 1.0 3.0 0.00 0.59 0.58 97 1004.4
20191113220552 37 298 1.0 3.0 0.00 0.60 0.58 96 1004.3
20191113215056 37 292 1.0 4.0 0.00 0.60 0.58 96 1004.3
20191113214552 37 296 1.0 3.0 0.00 0.60 0.58 96 1004.3
20191113214056 37 275 1.0 3.0 0.00 0.60 0.58 96 1004.3
20191113213553 36 252 1.0 4.0 0.00 0.60 0.58 96 1004.3
20191113212552 36 253 1.0 5.0 0.00 0.61 0.58 97 1004.4
20191113211553 36 281 0.0 3.0 0.01 0.61 0.58 96 1004.4
20191113210552 36 0 0.0 0.0 0.01 0.61 0.58 96 1004.2
20191113210056 36 0 0.0 0.0 0.01 0.61 0.58 96 1004.2
20191113204056 36 0 0.0 0.0 0.02 0.63 0.58 96 1003.9
20191113203552 36 0 0.0 0.0 0.02 0.64 0.58 96 1003.9
20191113203055 36 0 0.0 0.0 0.02 0.65 0.58 96 1004.0
20191113202552 36 0 0.0 0.0 0.02 0.65 0.58 96 1003.8
20191113200056 35 0 0.0 0.0 0.02 0.67 0.57 96 1003.8
20191113195552 35 0 0.0 0.0 0.02 0.68 0.57 96 1003.8
20191113194552 35 125 0.0 1.0 0.02 0.68 0.57 96 1003.9
20191113194055 35 125 0.0 1.0 0.02 0.69 0.57 96 1004.0
20191113193552 35 0 0.0 0.0 0.02 0.69 0.57 96 1003.8
20191113192552 35 0 0.0 0.0 0.02 0.69 0.56 96 1003.8
20191113191553 35 0 0.0 0.0 0.03 0.70 0.56 96 1003.7
20191113191056 36 0 0.0 0.0 0.03 0.70 0.56 96 1003.6
20191113183552 35 0 0.0 0.0 0.03 0.72 0.54 96 1003.4